Theta_e
314 307 301 305 297 296 291 295 297 299 296 306 308 306 308 310 310 302 325 333 335 339 345 347 349 351 351 351 350 350 350 349 346 345 341 340 340 340 340 340 342 338 337 335 334 336 336 335 336
309 307 305 300 293 288 290 295 298 301 302 314 310 313 312 309 319 323 327 334 337 342 344 346 346 350 351 351 350 350 350 349 346 344 341 340 340 340 341 341 340 337 337 336 336 335 335 334 333
305 305 298 297 291 289 290 296 299 301 308 307 311 315 314 313 319 325 329 336 339 341 344 345 345 350 350 350 349 349 349 349 347 343 341 340 340 340 340 341 340 337 336 335 336 335 335 335 334
301 301 298 292 291 294 295 297 300 301 303 305 312 310 316 323 324 328 336 338 338 340 343 342 346 349 350 349 349 348 349 349 347 343 341 340 340 340 340 340 340 340 338 337 336 334 335 335 335
301 295 288 288 290 293 296 299 299 303 302 303 312 308 313 323 330 334 335 338 337 340 341 342 345 347 348 348 348 348 348 347 346 344 343 342 341 340 340 339 340 339 338 337 336 335 334 334 333
296 292 285 283 286 290 294 299 299 301 303 304 308 313 315 325 331 334 336 336 338 338 341 341 338 341 344 346 347 347 347 346 345 344 343 342 341 340 340 340 341 338 337 336 334 333 332 332 332
292 290 285 284 287 289 290 296 297 299 303 303 313 311 312 322 331 335 335 335 338 338 340 340 341 341 337 340 341 343 344 343 343 343 342 340 339 339 341 341 341 339 336 334 333 332 333 334 334
295 291 286 285 285 288 291 295 298 301 302 309 315 308 310 320 333 335 335 335 335 336 338 340 340 341 341 340 334 336 338 339 340 339 337 334 333 335 335 334 338 339 337 335 334 334 334 334 333
296 289 286 288 286 288 293 294 298 299 300 301 308 313 316 328 332 331 332 331 332 333 335 337 339 339 341 340 334 332 333 334 334 333 330 326 330 331 329 328 332 336 335 335 334 334 334 331 329
295 288 290 293 290 292 293 292 295 296 297 299 306 315 322 329 329 326 327 327 327 329 332 336 336 337 338 339 335 333 334 335 334 333 330 329 328 328 329 325 326 330 330 332 333 332 323 319 316
294 290 293 293 294 295 293 293 293 294 296 299 305 312 319 326 327 326 327 328 327 329 331 333 335 337 337 338 335 333 334 332 332 330 328 328 328 326 326 325 324 325 323 323 321 312 308 306 305
290 294 295 296 295 295 293 294 293 293 297 296 298 314 319 323 325 326 326 328 328 329 330 332 335 335 336 337 334 334 333 330 328 328 327 326 325 324 325 326 326 328 324 312 306 304 303 302 303
291 294 296 296 295 294 294 293 292 293 297 297 303 316 318 322 324 327 329 330 330 329 330 331 333 334 336 335 334 333 332 331 326 326 326 326 325 325 325 319 315 311 308 305 302 301 300 299 299
292 293 293 294 294 293 293 293 291 296 298 296 297 315 318 318 321 323 327 328 329 329 329 332 332 333 334 333 334 333 332 331 324 323 324 325 324 320 315 311 307 302 301 299 298 298 297 297 298
293 289 292 291 293 292 293 289 289 298 297 296 295 297 314 317 319 321 326 328 330 330 331 331 331 333 334 333 333 332 331 326 323 319 317 317 314 311 309 306 300 299 299 299 298 298 298 297 298
289 287 283 291 292 293 293 288 293 297 295 294 294 293 295 312 319 321 324 327 330 331 330 331 333 333 333 332 331 332 327 324 318 311 309 309 309 307 303 300 299 298 298 297 297 296 296 295 295
284 281 284 288 292 291 288 284 292 294 292 292 292 292 292 294 298 313 322 324 327 331 330 330 331 330 330 329 327 319 315 314 310 307 305 306 305 304 300 298 297 297 296 296 296 295 295 294 293
281 280 283 283 288 289 286 286 290 294 290 289 289 290 291 292 296 300 312 317 324 329 330 330 330 329 329 320 311 308 307 307 307 305 304 304 301 300 298 297 297 296 295 295 295 294 294 293 292
284 282 281 284 288 286 286 287 289 292 292 289 289 291 291 291 295 297 301 307 308 321 327 328 328 328 316 312 310 305 305 304 304 305 303 301 299 298 297 296 295 295 294 294 294 294 293 292 292
283 281 281 284 288 286 285 285 289 290 291 293 293 292 291 292 293 294 294 295 299 309 325 327 327 320 318 319 315 310 304 304 304 302 301 300 299 299 298 295 294 294 293 293 292 292 291 291 291
284 283 282 282 285 286 283 283 287 289 291 293 293 294 295 294 295 295 294 294 295 300 317 326 325 318 318 317 304 302 301 300 299 299 298 298 297 297 295 294 293 293 292 292 291 291 291 289 290
280 287 286 285 283 276 283 276 283 286 290 291 292 292 294 295 295 296 295 294 294 299 309 322 322 317 315 308 308 305 305 300 298 297 298 295 297 296 294 294 293 292 291 291 290 291 290 289 289
283 287 285 284 283 280 280 278 280 286 288 290 290 291 293 294 295 296 296 295 295 298 309 319 317 314 311 307 308 307 306 300 297 296 295 295 294 295 293 293 292 291 290 290 289 289 289 289 288
288 285 283 283 284 276 279 279 281 284 282 285 287 289 289 289 291 294 295 293 292 300 308 312 309 309 304 308 307 309 303 297 296 295 294 295 292 293 292 292 291 290 289 288 289 288 288 288 288
282 279 268 270 274 272 279 279 283 284 286 287 288 289 291 289 289 290 291 292 292 301 304 306 306 302 302 305 305 305 302 300 298 295 295 292 291 290 290 290 289 289 289 289 288 288 288 288 287
276 280 271 268 268 272 278 276 280 285 287 288 288 289 290 291 289 290 291 291 294 298 300 303 303 299 301 302 302 301 301 301 299 298 295 294 293 291 292 290 290 289 289 288 288 288 288 288 288
272 270 279 275 274 272 274 279 282 285 285 286 286 288 288 291 289 288 290 291 292 295 297 299 298 297 299 300 299 299 300 300 298 297 296 294 292 292 290 290 289 289 289 288 288 288 288 288 288
276 278 271 270 269 267 271 275 277 279 281 285 286 286 288 291 291 288 289 289 290 291 293 295 296 295 296 296 298 298 298 300 298 296 293 292 291 291 290 289 289 289 288 288 288 287 287 287 288
272 272 272 271 271 268 266 274 280 278 280 281 283 287 288 290 291 289 289 290 290 290 290 291 292 293 293 295 296 296 296 295 295 294 292 292 291 290 289 289 288 288 287 287 286 286 287 287 287
275 272 271 265 262 267 268 269 281 280 281 282 282 285 289 289 291 290 291 291 290 290 290 291 291 291 291 294 295 294 293 293 292 291 291 291 290 290 289 288 287 286 286 286 285 285 286 286 287
Wind_Speed
5 5 2 5 4 4 4 8 3 5 3 1 4 6 10 3 6 6 1 7 14 16 14 15 18 19 18 17 16 16 15 14 15 14 14 14 14 14 14 13 11 12 13 14 12 10 10 10 10
3 2 5 3 5 1 6 5 9 8 1 5 3 2 3 3 2 3 8 7 17 16 14 14 16 18 18 17 16 15 15 16 15 13 13 13 12 12 11 10 10 10 11 12 13 12 12 11 11
2 4 5 4 4 7 6 6 7 5 6 2 3 3 3 3 1 10 2 13 17 15 13 14 16 18 18 17 17 15 14 15 15 14 13 12 11 11 9 10 9 8 9 10 10 10 9 9 9
3 5 5 4 8 7 7 4 3 1 2 5 3 3 1 2 7 6 12 14 16 14 13 14 18 19 18 17 16 15 14 14 14 14 12 11 10 9 9 9 7 7 8 8 8 7 7 7 7
4 3 2 2 7 6 6 6 3 5 3 3 4 4 1 2 6 11 14 14 15 13 11 13 17 18 18 17 16 15 14 14 13 12 11 11 10 8 7 7 7 8 8 7 6 6 6 6 6
4 3 2 5 6 5 8 7 2 4 3 0 1 7 4 2 8 11 12 11 13 17 10 11 13 14 15 16 15 15 14 15 14 12 11 10 10 8 7 7 7 8 6 5 5 6 6 7 7
4 4 4 3 5 6 6 5 6 6 4 6 5 8 1 3 6 13 10 8 13 16 13 8 12 13 12 12 12 12 14 14 12 12 11 9 9 9 6 8 8 7 5 5 5 5 5 5 6
4 3 2 5 3 8 3 2 3 7 9 2 5 6 5 5 13 11 10 11 14 14 16 11 7 10 10 9 12 12 12 12 11 10 10 9 7 8 8 8 8 7 5 5 4 4 4 5 6
3 2 4 5 5 6 6 5 1 3 4 2 4 3 2 15 16 15 12 10 11 12 13 13 10 8 11 9 8 11 12 11 11 9 10 7 4 5 6 6 6 6 5 4 3 4 6 7 7
3 3 8 7 4 5 5 2 5 3 1 3 1 2 7 17 17 18 17 13 15 17 16 11 14 12 11 9 8 6 6 6 5 5 6 4 5 4 4 4 4 3 4 4 5 7 8 6 4
5 7 4 5 5 4 4 5 4 3 5 5 7 5 9 14 17 17 17 16 16 17 14 15 13 13 14 9 7 4 4 3 4 5 5 5 4 3 2 2 2 3 4 3 4 4 4 5 4
3 9 6 4 1 4 4 6 6 4 6 1 7 4 9 16 19 19 18 17 17 18 18 17 14 14 14 8 7 7 6 4 4 4 6 4 3 3 3 2 2 2 3 3 3 2 3 5 5
4 5 6 5 7 6 5 8 5 9 10 7 4 7 12 14 15 13 11 14 15 17 19 19 17 14 13 11 8 7 8 6 5 5 5 4 4 4 3 3 3 3 3 3 3 3 3 4 5
5 6 9 7 5 5 4 5 4 9 6 7 6 9 9 11 13 9 12 17 18 17 17 17 18 17 15 12 11 8 7 8 5 4 4 5 4 4 4 4 3 3 3 3 3 3 3 3 3
5 7 8 5 5 7 5 8 9 19 4 8 9 8 8 10 8 16 15 18 19 17 17 16 18 17 15 13 12 10 8 7 6 5 6 6 5 6 6 5 4 4 3 5 3 3 3 3 3
4 2 4 4 2 4 6 17 7 7 7 11 11 9 9 13 15 8 11 13 13 13 16 16 13 14 14 12 10 8 7 7 7 5 5 7 7 6 6 5 4 4 4 3 3 2 2 3 4
4 5 6 8 1 3 6 5 5 4 3 9 9 7 8 9 9 11 10 11 13 16 15 15 14 14 13 9 6 5 6 5 5 6 5 7 8 7 6 5 4 5 4 3 2 3 2 3 3
6 6 6 4 8 8 13 13 14 13 5 8 9 9 8 10 17 13 9 9 11 14 14 15 13 13 11 8 6 5 5 4 4 6 6 7 5 8 7 5 5 5 4 3 2 3 4 2 2
7 8 13 12 13 14 17 24 15 14 13 8 9 13 11 11 11 8 9 12 8 7 12 15 15 14 12 8 6 4 5 5 5 4 6 7 7 8 8 5 5 4 4 4 3 3 3 3 3
4 7 7 9 5 7 10 26 17 17 19 16 14 14 13 10 9 10 9 9 12 15 13 16 17 15 14 11 8 5 6 4 3 5 4 5 7 8 8 7 5 5 5 5 3 3 3 2 3
6 5 3 7 10 8 9 22 10 8 15 12 13 15 13 16 17 12 9 12 10 14 17 16 17 17 16 13 9 8 8 6 3 4 4 1 6 5 7 7 6 6 4 4 3 2 4 3 3
6 4 3 5 4 3 5 17 4 1 9 5 8 9 13 14 13 13 9 8 12 14 12 14 16 17 14 16 13 19 14 11 5 6 4 4 6 6 5 7 7 6 4 5 3 2 2 3 3
6 9 6 4 6 2 5 6 2 6 14 12 18 20 17 13 11 14 10 11 11 11 16 16 16 17 15 17 16 14 13 6 9 7 10 6 4 5 7 6 7 6 4 4 5 4 4 3 3
11 11 15 5 5 9 9 9 12 6 7 15 20 21 20 19 18 17 14 8 8 7 8 11 15 15 15 17 16 17 17 15 12 11 10 7 4 4 7 6 7 6 6 6 4 4 5 5 5
23 9 6 5 3 6 3 4 12 12 12 12 15 19 20 18 18 18 19 12 6 8 11 12 16 14 15 16 15 14 15 16 19 17 12 13 8 6 7 6 7 5 5 6 5 5 5 5 4
11 3 3 9 5 12 5 5 2 4 8 11 13 15 18 24 20 18 17 15 8 6 6 10 13 14 15 14 14 11 13 9 9 12 11 10 8 7 10 8 7 7 7 5 5 4 4 4 4
10 4 12 9 13 10 6 5 6 14 19 23 22 20 23 22 21 19 16 14 11 6 5 5 7 8 13 14 12 12 12 12 11 10 10 9 8 8 8 9 8 7 6 6 6 4 4 4 3
9 10 7 6 6 5 5 4 3 18 21 19 22 21 20 22 23 19 14 13 10 8 6 3 5 5 5 8 10 10 11 12 11 12 10 11 10 11 10 9 8 7 6 6 6 4 4 5 3
7 6 6 5 5 6 6 3 12 18 17 17 17 18 16 19 19 19 16 12 10 8 8 6 4 7 7 7 8 11 9 12 12 11 11 12 11 11 10 10 9 8 7 6 5 5 5 6 5
9 3 5 4 9 7 7 7 13 22 21 19 19 19 17 18 18 18 16 15 14 10 7 6 3 4 4 6 8 8 9 11 11 10 12 12 11 10 10 9 8 7 7 6 7 7 5 5 5
Wind_Direction
342 337 75 42 57 66 257 257 275 293 252 239 108 147 178 143 168 209 130 157 133 150 154 158 158 155 151 149 145 143 139 138 133 128 125 122 118 119 115 108 101 100 94 89 95 93 84 77 72
346 6 47 82 104 173 263 245 241 229 273 127 77 67 113 177 108 109 130 177 147 150 153 158 157 156 153 150 149 150 148 144 141 134 127 124 123 122 122 120 113 107 104 99 96 93 85 77 71
14 32 91 130 162 193 225 220 262 260 187 158 88 31 147 190 79 164 224 154 146 150 155 154 154 156 156 152 152 155 152 146 142 139 137 133 129 123 121 130 119 115 110 100 95 92 86 75 67
44 14 35 109 229 255 217 245 225 298 245 253 139 160 267 242 155 192 140 149 148 151 154 157 158 159 158 156 157 158 157 152 145 145 142 140 138 131 125 121 111 102 103 100 92 86 82 70 58
30 57 83 245 253 258 259 253 260 229 244 211 174 201 244 52 91 128 143 151 155 154 151 159 158 159 159 159 160 160 158 151 146 149 148 147 148 145 147 139 130 118 105 97 90 82 71 54 38
35 89 89 236 248 269 265 226 167 228 235 147 159 143 180 82 128 146 145 150 158 164 152 161 155 155 159 161 161 161 160 151 151 154 150 148 152 159 163 166 144 130 119 104 89 73 60 49 42
122 102 219 254 263 286 252 197 193 212 216 238 147 149 280 175 153 149 140 138 158 166 161 165 166 154 151 157 157 157 154 151 153 154 151 151 157 160 164 171 152 144 134 121 107 86 60 41 31
110 102 259 237 240 268 279 253 337 170 232 89 142 187 211 197 156 138 128 141 160 169 172 163 159 157 158 163 156 154 154 152 153 158 154 155 162 158 151 149 154 156 156 138 116 81 51 26 8
140 38 244 250 174 252 322 345 342 295 144 228 199 164 312 132 148 148 143 155 166 174 174 177 169 163 165 163 166 159 158 157 159 157 156 151 159 165 163 165 175 173 161 131 89 46 35 22 17
153 182 233 213 208 255 294 296 319 330 227 237 248 50 118 142 161 164 169 166 179 182 180 175 180 178 169 173 164 158 162 161 161 160 158 156 163 164 166 172 171 163 129 71 53 61 52 39 18
178 223 215 260 245 256 268 303 334 310 261 226 207 173 161 165 170 178 182 181 180 184 185 185 179 177 176 176 171 158 165 155 156 161 158 160 154 158 172 157 163 147 102 71 61 52 48 42 28
213 252 242 269 318 319 278 316 306 200 248 37 284 195 172 177 181 184 186 188 179 187 190 190 185 178 181 171 172 171 175 160 156 162 164 158 158 171 170 168 130 111 98 101 78 64 49 43 31
245 299 289 266 293 268 299 261 250 277 254 283 348 179 189 196 192 193 189 189 185 188 190 190 189 186 181 173 167 170 182 182 168 162 169 163 168 171 152 116 105 105 95 88 75 59 44 39 22
321 289 285 287 266 263 257 265 138 267 283 231 221 209 204 208 198 183 188 191 196 193 193 192 191 190 186 186 178 174 175 182 159 163 173 177 163 151 132 126 118 100 97 85 81 66 56 52 28
292 307 304 243 222 237 176 278 220 244 228 261 236 235 214 226 199 205 193 196 196 197 191 190 192 190 186 185 184 183 182 171 168 165 166 167 154 148 137 136 118 111 94 96 81 59 53 42 19
329 281 332 299 110 290 179 262 284 255 204 247 251 234 230 229 221 209 205 205 195 193 195 188 186 184 189 185 183 184 178 174 163 147 150 147 132 129 124 123 122 125 109 108 99 79 80 53 31
337 262 272 319 264 309 203 283 278 23 184 258 276 271 255 266 257 239 211 198 193 193 186 187 186 186 186 173 155 145 140 146 146 135 139 144 136 140 133 129 128 122 108 95 108 67 86 66 15
331 322 320 301 329 343 303 278 282 290 286 255 286 282 260 250 246 242 215 202 197 198 188 185 182 181 172 137 118 96 99 98 124 136 138 139 133 130 122 122 129 127 117 106 94 107 60 72 14
288 281 286 291 285 284 275 279 275 281 281 275 257 266 263 248 259 226 217 210 195 198 189 186 181 175 153 146 141 128 151 145 126 114 135 140 137 139 133 127 128 130 128 138 144 119 105 39 9
269 286 288 275 321 298 296 283 271 274 270 261 260 260 257 265 258 235 213 203 199 200 192 187 189 172 173 173 166 149 148 126 133 125 106 151 142 142 139 134 136 134 123 117 110 137 118 90 15
285 235 277 289 328 259 283 280 265 239 252 264 252 252 258 244 258 255 215 213 198 194 197 193 187 179 179 166 123 104 93 95 103 141 137 165 130 139 135 129 133 132 124 136 123 122 133 133 39
321 283 271 276 359 276 36 291 113 236 264 301 284 263 258 259 255 259 231 217 210 210 194 191 186 182 176 162 160 161 166 167 170 162 150 143 141 135 129 130 129 128 124 123 125 109 111 109 137
299 329 291 233 251 284 206 257 313 12 310 322 356 350 347 326 303 293 272 243 225 203 195 188 179 180 174 172 170 167 165 142 132 126 125 132 125 141 128 132 122 121 119 123 124 118 111 95 118
347 323 296 255 223 254 236 189 285 50 355 353 351 346 345 340 339 323 296 272 233 196 188 179 172 176 169 177 174 176 164 148 143 146 144 160 155 153 124 138 124 123 124 125 122 122 113 105 98
358 356 332 330 206 233 34 280 271 33 22 8 348 351 348 349 344 338 328 308 255 200 188 179 176 174 173 174 175 170 167 167 165 161 161 154 167 167 145 142 132 129 127 131 128 122 115 125 120
314 31 289 299 333 302 343 225 316 18 4 360 11 351 356 357 349 343 338 325 296 249 210 190 186 168 171 170 169 158 156 159 162 162 166 143 176 140 151 136 135 137 132 128 129 121 126 130 132
310 3 317 273 258 259 228 257 195 25 14 4 358 2 356 355 349 343 343 342 332 306 250 212 180 170 171 168 155 152 151 152 156 149 160 137 141 140 142 132 139 140 140 144 139 138 141 145 145
344 278 329 312 287 277 306 300 15 16 6 356 347 350 346 351 352 349 346 347 345 339 343 86 136 150 142 139 149 147 150 149 152 143 150 141 142 144 142 136 133 134 138 139 140 140 145 139 142
349 28 346 318 344 313 346 299 39 17 358 339 339 339 337 348 351 351 346 349 344 355 356 4 101 130 128 129 133 140 145 143 149 148 156 135 142 137 143 140 140 142 141 144 142 146 143 145 141
71 49 45 1 325 291 261 248 30 18 348 345 349 338 346 357 353 352 353 356 355 352 356 354 37 83 98 119 127 127 126 132 138 138 132 141 147 141 140 142 137 134 139 150 151 152 150 149 144